STARLINK-32281 (60375 NORAD) Tracking and Keplerian Element Data

This shows tracking and keplerian element data for the satellite.

Feedback or suggestion? Click here.




ElementValue
Catalog60375
NameSTARLINK-32281
Epoch Orbit1191
Epoch Day286.72852782
Epoch Year2024
RAAN177.7484
Inclination53.1591
Eccentricity0.0006373
Argument of Perigee285.6263
Mean Anonmoly74.4038
Mean Motion15.40396991
Decay Rate0.00104795
L11 60375U 24138W 24286.72852782 .00104795 00000+0 25272-2 0 9997
L22 60375 53.1591 177.7484 0006373 285.6263 74.4038 15.40396991 11911



Live tracking and technical data element details for STARLINK-32281 (NORAD 60375). STARLINK-32281 can be tracked NOW for your location showing map with azimuth and elevation plus other details from your city location.







IsCatalogInMostPopularTable: catalog: 60375, numindb: 8
Update: records affected: 1



GetName: 60375 STARLINK-32281

Hit Count: updated at: Wed, 04 Dec 2024 19:42:32 GMT